Regional Weather Roundup
Issued by NWS

Current Version | Previous Version | Text Only | Print | Product List | Glossary On
Versions: 1 2 3 4 5 6 7 8 9 10 11 12 13 14 15 16 17 18 19 20 21 22 23 24 25 26 27 28
000
ASUS42 KKEY 100310
RWRKEY

FLORIDA REGIONAL WEATHER ROUNDUP FOR THE FLORIDA KEYS
NATIONAL WEATHER SERVICE KEY WEST FLORIDA
1000 PM EST FRI DEC 09 2016

...SOUTH FLORIDA AND THE KEYS...

CITY           SKY/WX    TMP DP  RH WIND       PRES   REMARKS
FORT MYERS     CLOUDY    59  49  69 NE12      30.28R
SW REGIONAL AP CLOUDY    59  49  69 NE10      30.29R
NAPLES         MOCLDY    61  51  70 NE17      30.26R
MIAMI          LGT RAIN  64  60  87 N10       30.23R FOG
WEST KENDALL   CLOUDY    65  58  78 N16G22    30.23R
HOMESTEAD      MOCLDY    66  65  98 NW13      30.20S
MARATHON       PTCLDY    71  64  78 N14G26    30.19R
BOCA CHICA NAS PTCLDY    70  64  81 NE21G28   30.20R
KEY WEST INTL  PTCLDY    71  66  84 NE20G25   30.20R

...INTERNATIONAL WEATHER...

CITY           SKY/WX    TMP DP  RH WIND       PRES   REMARKS
NASSAU BAHAMAS MOCLDY    77  68  73 NE9       30.17R
CANCUN MEXICO  PTCLDY    77  70  78 NE6       30.13S
COZUMEL MEXICO MOCLDY    77  68  73 E13       30.11R

ADJACENT COASTAL WATERS...

STATION/POSITION TIME  SKY/WX   TEMP    WIND        PRES    WAVE
                                AIR SEA DIR/SP/G            HT/PER
                 (UTC)          (F)     (DEG/KT/KT) (MB)    (FT/S)
PULASKI SHOAL LI 0300            70      40/ 24/ 26 1023.1R
SAND KEY         0250            72      50/ 26/ 30 1022.4R
LONG KEY         0200            70 77   30/ 24/ 28 1022.2R
MOLASSES REEF    0300            69 78  360/ 20/ 22 1022.3R
FOWEY ROCKS      0300            68 77  350/ 22/ 25 1023.4R

$$




USA.gov is the U.S. government's official web portal to all federal, state and local government web resources and services.